User: anonymous   Login
Location: Unspecified
(0.0000°N, 0.0000°E)
Time: 00:24:12
(UTC+00:00)
Language:

USA 148 - Orbit

View from above orbital plane
View from above orbital plane
View from above satellite
View from above satellite

Ground track
Ground track

The orbit data is extracted from the following two-line orbital elements,

1 26052U 00001A   17051.23343841 0.00000000  00000-0  00000-0 0    01
2 26052   6.5442  54.4334 0005155   8.7686 351.2661  1.00270000    06
Epoch (UTC): 20 February 2017 05:36:09
Eccentricity: 0.0005155
inclination: 6.5442°
perigee height: 35765 km
apogee height: 35808 km
right ascension of ascending node: 54.4334°
argument of perigee: 8.7686°
revolutions per day: 1.00270000
mean anomaly at epoch: 351.2661°
orbit number at epoch: 0

The dashed part of the orbit path shows where the satellite is in the earth's shadow,  

DLR